Time,TemperatureF,DewpointF,PressureIn,WindDirection,WindDirectionDegrees,WindSpeedMPH,WindSpeedGustMPH,Humidity,HourlyPrecipIn,Conditions,Clouds,dailyrainin,SoftwareType,DateUTC
2013-10-05 10:22:00,78.0,72.0,29.98,SSE,167,3.0,-999.0,81,-99.99,,,-99.99,,2013-10-05 15:22:00,
2013-10-05 10:53:00,80.0,71.0,29.98,SW,226,6.0,-999.0,73,-99.99,,,-99.99,,2013-10-05 15:53:00,
2013-10-05 11:23:00,80.0,71.0,29.98,SW,230,6.0,-999.0,74,-99.99,,,-99.99,,2013-10-05 16:23:00,
2013-10-05 11:43:00,80.0,71.0,29.98,SSE,153,5.0,-999.0,74,-99.99,,,-99.99,,2013-10-05 16:43:00,
2013-10-05 11:53:00,81.0,71.0,29.98,SW,234,3.0,-999.0,72,-99.99,,,-99.99,,2013-10-05 16:53:00,
2013-10-05 12:22:00,83.0,71.0,29.97,South,174,6.0,-999.0,68,-99.99,,,-99.99,,2013-10-05 17:22:00,
2013-10-05 12:42:00,84.0,72.0,29.96,South,178,4.0,-999.0,67,-99.99,,,-99.99,,2013-10-05 17:42:00,
2013-10-05 12:53:00,84.0,71.0,29.95,SSE,155,6.0,-999.0,66,-99.99,,,-99.99,,2013-10-05 17:53:00,
2013-10-05 13:12:00,83.0,71.0,29.95,SW,215,5.0,-999.0,68,-99.99,,,-99.99,,2013-10-05 18:12:00,
2013-10-05 13:22:00,84.0,70.0,29.93,SW,229,7.0,-999.0,64,-99.99,,,-99.99,,2013-10-05 18:22:00,
2013-10-05 13:42:00,84.0,72.0,29.92,SW,214,6.0,-999.0,67,-99.99,,,-99.99,,2013-10-05 18:42:00,
2013-10-05 13:52:00,85.0,71.0,29.91,South,171,7.0,-999.0,64,-99.99,,,-99.99,,2013-10-05 18:52:00,
2013-10-05 14:22:00,84.0,70.0,29.90,South,175,6.0,-999.0,63,-99.99,,,-99.99,,2013-10-05 19:22:00,
2013-10-05 14:42:00,83.0,70.0,29.89,SSE,168,6.0,-999.0,66,-99.99,,,-99.99,,2013-10-05 19:42:00,
2013-10-05 14:52:00,84.0,72.0,29.88,SSW,194,2.0,-999.0,68,-99.99,,,-99.99,,2013-10-05 19:52:00,
2013-10-05 15:22:00,83.0,70.0,29.88,SSE,157,4.0,-999.0,66,-99.99,,,-99.99,,2013-10-05 20:22:00,
2013-10-05 15:42:00,84.0,70.0,29.88,South,176,5.0,-999.0,64,-99.99,,,-99.99,,2013-10-05 20:42:00,
2013-10-05 15:52:00,83.0,70.0,29.88,SW,225,4.0,-999.0,64,-99.99,,,-99.99,,2013-10-05 20:52:00,
2013-10-05 16:22:00,83.0,70.0,29.88,SSW,204,2.0,-999.0,64,-99.99,,,-99.99,,2013-10-05 21:22:00,
2013-10-05 16:44:00,81.0,71.0,29.88,SW,231,0.0,-999.0,71,-99.99,,,-99.99,,2013-10-05 21:44:00,
2013-10-05 16:54:00,80.0,71.0,29.87,SW,226,0.0,-999.0,74,-99.99,,,-99.99,,2013-10-05 21:54:00,